FW9437 Weather Reports


Display with metric or nautical units.
time (UTC)temp
F
wind
direction
speed
MPH
gust
MPH
rain 1hr
in
rain 24hr
in
rain mn
in
humidity
%
barometer
mb
20260906011605 81 0 0.0 0.0 0.00 0.00 0.00 86 1011.7
20260906004608 83 0 0.0 0.0 0.00 0.00 0.00 85 1011.5
20260906003101 84 15 0.0 1.0 0.00 0.00 0.00 84 1011.5
20260906001611 85 14 0.0 1.0 0.00 0.00 0.00 82 1011.5
20260906000110 87 0 0.0 1.0 0.00 0.00 0.00 78 1011.5
20260905234602 88 15 0.0 1.0 0.00 0.00 0.00 76 1011.6
20260905233105 91 15 0.0 1.0 0.00 0.00 0.00 71 1011.6
20260905231616 92 0 0.0 1.0 0.00 0.00 0.00 68 1011.7
20260905230112 94 0 0.0 1.0 0.00 0.00 0.00 65 1011.7
20260905224559 95 15 0.0 1.0 0.00 0.00 0.00 58 1011.6
20260905223106 97 15 0.0 0.0 0.00 0.00 0.00 53 1011.6
20260905221628 98 0 0.0 2.0 0.00 0.00 0.00 50 1011.6
20260905220103 99 0 0.0 2.0 0.00 0.00 0.00 53 1011.7
20260905214603 100 308 0.0 2.0 0.00 0.00 0.00 47 1011.8
20260905213056 99 0 1.0 3.0 0.00 0.00 0.00 48 1011.9
20260905211605 98 15 0.0 4.0 0.00 0.00 0.00 48 1011.9
20260905210111 98 309 0.0 3.0 0.00 0.00 0.00 54 1012.0
20260905204556 97 343 1.0 5.0 0.00 0.00 0.00 50 1012.0
20260905203104 98 331 3.0 6.0 0.00 0.00 0.00 51 1012.2
20260905201607 98 300 1.0 4.0 0.00 0.00 0.00 51 1012.4
20260905200131 98 0 1.0 3.0 0.00 0.00 0.00 50 1012.7
20260905194607 99 313 1.0 3.0 0.00 0.00 0.00 51 1013.1
20260905193104 98 303 1.0 3.0 0.00 0.00 0.00 52 1013.3
20260905191602 96 27 2.0 5.0 0.00 0.00 0.00 54 1013.7
20260905184612 97 0 0.0 3.0 0.00 0.00 0.00 54 1014.0
20260905183107 98 349 2.0 4.0 0.00 0.00 0.00 53 1014.1
20260905181603 97 16 2.0 5.0 0.00 0.00 0.00 54 1014.1
20260905180116 98 21 2.0 6.0 0.00 0.00 0.00 51 1014.3
20260905174602 98 226 1.0 3.0 0.00 0.00 0.00 52 1014.3
20260905173132 97 233 0.0 2.0 0.00 0.00 0.00 58 1014.4
20260905171603 96 323 2.0 3.0 0.00 0.00 0.00 57 1014.6
20260905170105 96 293 1.0 3.0 0.00 0.00 0.00 60 1014.8
20260905164606 95 211 1.0 3.0 0.00 0.00 0.00 58 1014.9
20260905163104 95 13 0.0 3.0 0.00 0.00 0.00 63 1015.1
20260905161603 94 34 2.0 4.0 0.00 0.00 0.00 64 1015.2
20260905154603 93 131 0.0 2.0 0.00 0.00 0.00 65 1015.3
20260905153102 92 285 0.0 2.0 0.00 0.00 0.00 66 1015.5
20260905151604 90 139 1.0 2.0 0.00 0.00 0.00 70 1015.5
20260905150058 89 0 0.0 0.0 0.00 0.00 0.00 76 1015.6
20260905144602 87 209 0.0 1.0 0.00 0.00 0.00 77 1015.6
20260905143105 85 0 0.0 0.0 0.00 0.00 0.00 80 1015.4
20260905141603 83 0 0.0 0.0 0.00 0.00 0.00 84 1015.4
20260905134602 79 0 0.0 1.0 0.00 0.00 0.00 91 1015.5
20260905133100 77 0 0.0 1.0 0.00 0.00 0.00 95 1015.5
20260905131603 76 0 0.0 0.0 0.00 0.00 0.00 96 1015.4
20260905130059 75 0 0.0 0.0 0.00 0.00 0.00 96 1015.4
20260905124559 75 0 0.0 0.0 0.00 0.00 0.00 96 1015.3
20260905123106 74 0 0.0 0.0 0.00 0.00 0.00 95 1015.2
20260905121601 73 0 0.0 0.0 0.00 0.00 0.00 95 1015.1
20260905120108 73 0 0.0 0.0 0.00 0.00 0.00 95 1015.0
20260905114611 73 0 0.0 0.0 0.00 0.00 0.00 95 1014.9
20260905113102 73 0 0.0 0.0 0.00 0.00 0.00 95 1014.7
20260905111652 73 0 0.0 0.0 0.00 0.00 0.00 95 1014.6
20260905110104 73 0 0.0 0.0 0.00 0.00 0.00 95 1014.5
20260905104600 73 0 0.0 0.0 0.00 0.00 0.00 95 1014.2
20260905103104 74 0 0.0 0.0 0.00 0.00 0.00 95 1014.0
20260905101609 74 0 0.0 0.0 0.00 0.00 0.00 95 1014.2
20260905100109 74 0 0.0 0.0 0.00 0.00 0.00 94 1014.2
20260905094608 74 0 0.0 0.0 0.00 0.00 0.00 94 1014.3
20260905093123 74 0 0.0 0.0 0.00 0.00 0.00 94 1014.4
20260905091605 74 0 0.0 0.0 0.00 0.00 0.00 94 1014.4
20260905084605 74 0 0.0 0.0 0.00 0.00 0.00 94 1014.2
20260905083101 74 0 0.0 0.0 0.00 0.00 0.00 94 1014.1
20260905081603 75 0 0.0 0.0 0.00 0.00 0.00 94 1014.2
20260905080059 75 0 0.0 0.0 0.00 0.00 0.00 94 1014.1
20260905074609 75 0 0.0 1.0 0.00 0.00 0.00 94 1014.1
20260905073107 75 0 0.0 1.0 0.00 0.00 0.00 94 1014.1
20260905071605 75 0 0.0 0.0 0.00 0.00 0.00 94 1014.2
20260905064626 75 0 0.0 0.0 0.00 0.00 0.00 93 1014.1
20260905063102 76 0 0.0 0.0 0.00 0.00 0.00 93 1014.1
20260905061604 76 0 0.0 0.0 0.00 0.00 0.00 93 1014.2
20260905060106 76 0 0.0 0.0 0.00 0.00 0.00 93 1014.2
20260905054604 76 0 0.0 0.0 0.00 0.00 0.00 92 1014.2
20260905053100 76 0 0.0 0.0 0.00 0.00 0.00 92 1014.3
20260905051558 77 0 0.0 1.0 0.00 0.00 0.00 91 1014.3
20260905050100 77 0 0.0 0.0 0.00 0.00 0.00 91 1014.5
20260905044611 77 0 0.0 0.0 0.00 0.00 0.00 92 1014.6
20260905043106 77 0 0.0 0.0 0.00 0.00 0.00 91 1014.6
20260905041607 77 0 0.0 0.0 0.00 0.00 0.00 91 1014.7
20260905040105 78 0 0.0 1.0 0.00 0.00 0.00 90 1014.9
20260905034609 78 0 0.0 1.0 0.00 0.00 0.00 90 1014.9
20260905033100 78 0 0.0 1.0 0.00 0.00 0.00 90 1014.7
20260905031558 78 0 0.0 0.0 0.00 0.00 0.00 89 1014.8
20260905030119 78 0 0.0 0.0 0.00 0.00 0.00 89 1014.9
20260905024606 78 0 0.0 1.0 0.00 0.00 0.00 89 1014.7
20260905023101 78 0 0.0 0.0 0.00 0.00 0.00 89 1014.6
20260905021611 79 0 0.0 1.0 0.00 0.00 0.00 88 1014.7
20260905020108 79 0 0.0 1.0 0.00 0.00 0.00 88 1014.7
20260905014603 79 359 0.0 1.0 0.00 0.00 0.00 87 1014.5
20260905013104 81 0 0.0 0.0 0.00 0.00 0.00 85 1014.4